Weather History for Cadillac, MI

Change the Weather History Date:

Tuesday, February 5, 2013

  Actual Average Record
Temperature  
Mean Temperature 7 °F -  
Max Temperature 23 °F 26 °F 60 °F (1999)
Min Temperature -9 °F 7 °F -19 °F (1978)
Degree Days  
Heating Degree Days 58    
Moisture  
Dew Point 5 °F    
Average Humidity 77    
Maximum Humidity 84    
Minimum Humidity 65    
Precipitation  
Precipitation 0.00 in - - ()
Sea Level Pressure  
Sea Level Pressure 29.77 in    
Wind  
Wind Speed 4 mph (WSW)    
Max Wind Speed 14 mph    
Max Gust Speed 20 mph    
Visibility 8 miles    
Events Snow    
Averages and records for this station are not official NWS values.
T = Trace of Precipitation, MM = Missing Value Source: NWS Daily Summary

Daily Weather History Graph

Daily Weather History Graph

Search for Another Location

Airport:

Trip Planner

Search our weather history database for the weather conditions in past years. The results will help you decide how hot, cold, wet, or windy it might be!

Date:

Astronomy

Feb. 05, 2013 Rise Set
Actual Time 7:54 AM EST 5:57 PM EST
Civil Twilight 7:24 AM EST 6:27 PM EST
Nautical Twilight 6:49 AM EST 7:02 PM EST
Astronomical Twilight 6:15 AM EST 7:36 PM EST
Moon 3:39 AM EST (2/5) 1:09 PM EST (2/5)
Length of Visible Light 11h 03m
Length of Day
10h 02m
Waning Crescent, 27% of the Moon is Illuminated
Feb 5
Waning Crescent
Feb 10
New
Feb 17
First Quarter
Feb 25
Full
Mar 4
Last Quarter

Hourly Weather History & Observations

Time (EST) Temp. Windchill Dew Point Humidity Pressure Visibility Wind Dir Wind Speed Gust Speed Precip Events Conditions
12:15 AM -4.0 °F - -10.3 °F 74% 29.85 in 10.0 mi Calm Calm - N/A   Clear
12:34 AM -3.5 °F - -11.6 °F 68% 29.85 in 10.0 mi Calm Calm - N/A   Clear
12:55 AM -3.6 °F - -11.6 °F 69% 29.84 in 10.0 mi Calm Calm - N/A   Clear
1:15 AM -6.3 °F - -14.1 °F 69% 29.84 in 10.0 mi Calm Calm - N/A   Clear
1:34 AM -5.6 °F - -13.2 °F 70% 29.84 in 10.0 mi Calm Calm - N/A   Clear
1:55 AM -6.2 °F - -12.8 °F 73% 29.83 in 10.0 mi Calm Calm - N/A   Clear
2:15 AM -6.7 °F - -14.8 °F 68% 29.83 in 10.0 mi Calm Calm - N/A   Clear
2:35 AM -6.7 °F - -14.1 °F 70% 29.84 in 10.0 mi Calm Calm - N/A   Clear
2:55 AM -6.9 °F - -14.3 °F 70% 29.84 in 10.0 mi Calm Calm - N/A   Clear
3:14 AM -8.1 °F - -15.5 °F 70% 29.83 in 10.0 mi Calm Calm - N/A   Clear
3:35 AM -8.7 °F - -16.4 °F 69% 29.82 in 10.0 mi Calm Calm - N/A   Clear
3:55 AM -9.0 °F - -15.9 °F 72% 29.82 in 10.0 mi Calm Calm - N/A   Clear
4:14 AM -6.7 °F - -15.5 °F 66% 29.81 in 10.0 mi Calm Calm - N/A   Clear
4:35 AM -6.7 °F - -14.8 °F 68% 29.80 in 10.0 mi Calm Calm - N/A   Clear
4:55 AM -7.4 °F - -14.8 °F 70% 29.80 in 10.0 mi Calm Calm - N/A   Clear
5:14 AM -7.8 °F - -16.6 °F 65% 29.81 in 10.0 mi Calm Calm - N/A   Clear
5:35 AM -9.0 °F - -16.6 °F 69% 29.79 in 10.0 mi Calm Calm - N/A   Clear
5:55 AM -7.8 °F - -15.5 °F 69% 29.79 in 10.0 mi Calm Calm - N/A   Scattered Clouds
6:14 AM -6.7 °F - -14.3 °F 70% 29.78 in 10.0 mi Calm Calm - N/A   Clear
6:35 AM -4.0 °F - -11.6 °F 70% 29.78 in 10.0 mi Calm Calm - N/A   Mostly Cloudy
6:55 AM -2.7 °F - -9.9 °F 71% 29.77 in 10.0 mi Calm Calm - N/A   Overcast
7:14 AM -0.0 °F - -5.4 °F 78% 29.77 in 10.0 mi Calm Calm - N/A   Overcast
7:35 AM 2.5 °F - -3.3 °F 77% 29.76 in 10.0 mi Calm Calm - N/A   Overcast
7:55 AM 8.6 °F -1.3 °F 3.7 °F 81% 29.76 in 10.0 mi South 5.8 mph - N/A   Overcast
8:14 AM 11.3 °F -1.3 °F 5.4 °F 77% 29.75 in 10.0 mi South 9.2 mph - N/A   Overcast
8:35 AM 11.3 °F -0.4 °F 5.5 °F 78% 29.74 in 7.0 mi South 8.1 mph 17.3 mph N/A Snow Light Snow
8:55 AM 13.8 °F 1.0 °F 8.4 °F 79% 29.73 in 10.0 mi South 10.4 mph - N/A   Overcast
9:14 AM 13.8 °F 2.7 °F 8.4 °F 79% 29.73 in 10.0 mi South 8.1 mph - N/A   Overcast
9:35 AM 14.0 °F 2.9 °F 8.2 °F 78% 29.73 in 10.0 mi South 8.1 mph - N/A   Overcast
9:55 AM 16.2 °F 4.7 °F 10.2 °F 77% 29.72 in 10.0 mi South 9.2 mph - N/A   Overcast
10:15 AM 16.3 °F 3.4 °F 10.4 °F 77% 29.72 in 10.0 mi SSW 11.5 mph - N/A   Overcast
10:35 AM 16.3 °F 4.9 °F 10.0 °F 76% 29.72 in 10.0 mi South 9.2 mph 17.3 mph N/A   Overcast
10:55 AM 16.3 °F 5.7 °F 10.0 °F 76% 29.70 in 10.0 mi South 8.1 mph 16.1 mph N/A Snow Light Snow
11:15 AM 16.3 °F 5.7 °F 10.0 °F 76% 29.70 in 10.0 mi South 8.1 mph - N/A Snow Light Snow
11:35 AM 17.6 °F 7.3 °F 11.1 °F 76% 29.70 in 4.0 mi South 8.1 mph - N/A Snow Light Snow
11:54 AM 18.0 °F 5.4 °F 12.2 °F 78% 29.69 in 2.0 mi South 11.5 mph - N/A Snow Light Snow
12:15 PM 18.9 °F 10.8 °F 13.5 °F 79% 29.68 in 1.5 mi South 5.8 mph - N/A Snow Light Snow
12:35 PM 18.9 °F 8.0 °F 13.5 °F 79% 29.67 in 2.5 mi South 9.2 mph - N/A Snow Light Snow
12:54 PM 19.4 °F 10.4 °F 14.5 °F 81% 29.66 in 1.2 mi South 6.9 mph - N/A Snow Light Snow
1:15 PM 21.2 °F 11.7 °F 16.5 °F 82% 29.65 in 2.0 mi South 8.1 mph - N/A Snow Light Snow
1:35 PM 21.4 °F 15.1 °F 16.7 °F 82% 29.65 in 2.5 mi SSW 4.6 mph - N/A Snow Light Snow
1:54 PM 23.0 °F 10.6 °F 18.1 °F 82% 29.65 in 10.0 mi SW 13.8 mph - N/A Snow Light Snow
2:15 PM 23.0 °F 13.9 °F 18.3 °F 82% 29.65 in 5.0 mi WSW 8.1 mph - N/A Snow Light Snow
2:35 PM 23.4 °F 12.2 °F 19.0 °F 84% 29.65 in 3.0 mi WSW 11.5 mph - N/A Snow Light Snow
2:55 PM 23.9 °F 13.5 °F 19.2 °F 82% 29.66 in 7.0 mi West 10.4 mph - N/A Snow Light Snow
3:15 PM 23.9 °F 12.3 °F 19.4 °F 83% 29.66 in 5.0 mi West 12.7 mph 17.3 mph N/A   Haze
3:35 PM 23.4 °F 12.2 °F 18.9 °F 83% 29.67 in 10.0 mi West 11.5 mph 19.6 mph N/A   Overcast
3:55 PM 23.5 °F 12.4 °F 18.9 °F 82% 29.68 in 7.0 mi West 11.5 mph - N/A Snow Light Snow
4:15 PM 23.0 °F 12.4 °F 18.3 °F 82% 29.69 in 7.0 mi West 10.4 mph - N/A Snow Light Snow
4:35 PM 23.0 °F 11.7 °F 17.6 °F 80% 29.69 in 5.0 mi West 11.5 mph - N/A Snow Light Snow
4:55 PM 22.6 °F 12.6 °F 17.2 °F 80% 29.70 in 5.0 mi West 9.2 mph - N/A Snow Light Snow
5:15 PM 22.6 °F 14.3 °F 17.4 °F 80% 29.71 in 5.0 mi WNW 6.9 mph - N/A Snow Light Snow
5:34 PM 22.1 °F 9.5 °F 17.1 °F 81% 29.73 in 7.0 mi WNW 13.8 mph - N/A Snow Light Snow
5:55 PM 21.2 °F 8.9 °F 15.8 °F 80% 29.74 in 10.0 mi WNW 12.7 mph - N/A Snow Light Snow
6:15 PM 21.2 °F 10.9 °F 15.8 °F 80% 29.75 in 10.0 mi WNW 9.2 mph - N/A Snow Light Snow
6:34 PM 21.2 °F 10.9 °F 15.8 °F 80% 29.76 in 10.0 mi WNW 9.2 mph - N/A Snow Light Snow
6:55 PM 21.2 °F 8.9 °F 14.9 °F 77% 29.77 in 10.0 mi NW 12.7 mph 18.4 mph N/A Snow Light Snow
7:15 PM 21.2 °F 11.7 °F 14.9 °F 77% 29.78 in 10.0 mi NW 8.1 mph - N/A Snow Light Snow
7:34 PM 20.7 °F 8.2 °F 13.8 °F 75% 29.81 in 7.0 mi NW 12.7 mph - N/A Snow Light Snow
7:55 PM 20.1 °F 9.5 °F 13.3 °F 75% 29.82 in 5.0 mi NW 9.2 mph - N/A Snow Light Snow
8:15 PM 18.9 °F 10.8 °F 13.1 °F 78% 29.83 in 10.0 mi WNW 5.8 mph - N/A Snow Light Snow
8:34 PM 18.9 °F 13.7 °F 13.1 °F 78% 29.84 in 10.0 mi NW 3.5 mph - N/A Snow Light Snow
8:55 PM 18.9 °F 9.8 °F 13.1 °F 78% 29.85 in 10.0 mi WNW 6.9 mph - N/A Snow Light Snow
9:15 PM 19.8 °F 14.7 °F 13.5 °F 77% 29.85 in 7.0 mi WNW 3.5 mph - N/A Snow Light Snow
9:34 PM 19.6 °F 14.5 °F 13.3 °F 77% 29.86 in 10.0 mi West 3.5 mph - N/A Snow Light Snow
10:15 PM 18.9 °F 12.1 °F 14.0 °F 81% 29.89 in 7.0 mi West 4.6 mph - N/A Snow Light Snow
10:35 PM 19.4 °F 12.8 °F 14.5 °F 81% 29.89 in 3.0 mi West 4.6 mph - N/A Snow Light Snow
10:55 PM 18.9 °F 10.8 °F 14.5 °F 83% 29.90 in 10.0 mi WNW 5.8 mph - N/A Snow Light Snow
11:15 PM 19.4 °F 10.4 °F 14.9 °F 83% 29.90 in 10.0 mi NW 6.9 mph - N/A Snow Light Snow
11:35 PM 19.4 °F 11.5 °F 14.9 °F 83% 29.91 in 10.0 mi WNW 5.8 mph - N/A   Overcast
11:55 PM 19.4 °F 11.5 °F 14.9 °F 83% 29.92 in 10.0 mi WNW 5.8 mph - N/A Snow Light Snow